Location: Aalen
(48.8330°N, 10.1000°E)
Time: 20:41:59
(UTC+02:00)

S-56A Canister/Altair - Pass Details

Date: 02 August 2021
Orbit: 632 x 2500 km, 38.9° (Epoch: 19 September)

Event Time Altitude Azimuth Distance (km) Brightness Sun altitude
Rises 18:36:51 0° 262° (W) 5,853 13.5 21.1°
Reaches altitude 10° 18:40:34 10° 259° (W) 4,986 13.5 20.5°
Maximum altitude 18:54:48 56° 187° (S) 2,826 10.7 18.2°
Drops below altitude 10° 19:08:18 10° 115° (ESE) 4,742 11.0 16.0°
Sets 19:11:44 0° 111° (ESE) 5,559 11.3 15.4°
